NSZ3752 EKCH-LIBD

Flight info

Callsign NSZ3752
Flight time 2h 11m
Altitude 35000
Route SIMEG DCT BALOX M736 SALLO M44 KOGIM DCT MASOR DCT GERGA M725 KOBUS/N0441F360 DCT PIKIB Z36 MAREM/N0441F350 DCT BUDEX DCT TIVAP DCT EPOLA DCT NEMEK DCT NUPSO DCT XOLTA DCT VIE/N0341F190 T415 EKMUR
Aircraft B738/M-SDE2E3GHIJ1LRWXY/LB1

Departure

Time 2026-04-22 12:33
Airport Copenhagen Kastrup Airport (EKCH)

Arrival

Time 2026-04-22 14:44
Airport Bari Karol Wojtyła International Airport (LIBD)
Time Latitude Longitude Altitude Speed Heading
2026-04-22 12:08 55.62669 12.64233 16 ft 0 kts 33°
2026-04-22 12:21 55.62664 12.64227 16 ft 3 kts 33°
2026-04-22 12:21 55.62651 12.64212 18 ft 3 kts 34°
2026-04-22 12:21 55.62632 12.64187 20 ft 3 kts 44°
2026-04-22 12:22 55.62620 12.64157 20 ft 3 kts 86°
2026-04-22 12:22 55.62625 12.64127 18 ft 3 kts 121°
2026-04-22 12:22 55.62631 12.64109 16 ft 0 kts 123°
2026-04-22 12:25 55.62626 12.64122 16 ft 6 kts 123°
2026-04-22 12:25 55.62584 12.64239 16 ft 15 kts 122°
2026-04-22 12:25 55.62520 12.64413 16 ft 17 kts 123°
2026-04-22 12:25 55.62421 12.64465 16 ft 17 kts 195°
2026-04-22 12:26 55.62310 12.64411 18 ft 16 kts 195°
2026-04-22 12:26 55.62202 12.64407 15 ft 16 kts 169°
2026-04-22 12:26 55.62098 12.64441 16 ft 15 kts 169°
2026-04-22 12:26 55.61996 12.64475 16 ft 16 kts 168°
2026-04-22 12:27 55.61871 12.64516 17 ft 20 kts 169°
2026-04-22 12:27 55.61734 12.64561 18 ft 20 kts 170°
2026-04-22 12:27 55.61611 12.64496 16 ft 19 kts 213°
2026-04-22 12:27 55.61502 12.64370 16 ft 18 kts 213°
2026-04-22 12:28 55.61397 12.64247 16 ft 18 kts 213°
2026-04-22 12:28 55.61295 12.64130 16 ft 17 kts 213°
2026-04-22 12:28 55.61196 12.64017 17 ft 17 kts 213°
2026-04-22 12:28 55.61102 12.63908 17 ft 16 kts 213°
2026-04-22 12:29 55.61011 12.63803 17 ft 15 kts 213°
2026-04-22 12:29 55.60924 12.63703 16 ft 15 kts 213°
2026-04-22 12:29 55.60841 12.63609 16 ft 14 kts 209°
2026-04-22 12:29 55.60768 12.63631 16 ft 6 kts 137°
2026-04-22 12:30 55.60739 12.63681 16 ft 0 kts 129°
2026-04-22 12:31 55.60726 12.63709 16 ft 7 kts 129°
2026-04-22 12:31 55.60683 12.63815 19 ft 13 kts 112°
2026-04-22 12:31 55.60702 12.63911 18 ft 0 kts 42°
2026-04-22 12:32 55.60709 12.63923 18 ft 6 kts 41°
2026-04-22 12:32 55.60913 12.64237 17 ft 75 kts 41°
2026-04-22 12:33 55.61474 12.65103 17 ft 137 kts 40°
2026-04-22 12:33 55.62291 12.66370 289 ft 163 kts 32°
2026-04-22 12:33 55.63138 12.67623 1238 ft 153 kts 31°
2026-04-22 12:33 55.63958 12.68860 1994 ft 158 kts 34°
2026-04-22 12:34 55.64828 12.70211 2443 ft 176 kts 35°
2026-04-22 12:34 55.65794 12.71701 2879 ft 194 kts 34°
2026-04-22 12:34 55.66870 12.73339 3073 ft 215 kts 34°
2026-04-22 12:34 55.68014 12.75205 3293 ft 239 kts 49°
2026-04-22 12:35 55.68581 12.78134 3673 ft 268 kts 83°
2026-04-22 12:35 55.68247 12.81396 4582 ft 273 kts 110°
2026-04-22 12:35 55.67131 12.84164 5350 ft 283 kts 136°
2026-04-22 12:35 55.65439 12.86010 6082 ft 289 kts 154°
2026-04-22 12:36 55.63577 12.87430 6829 ft 293 kts 156°
2026-04-22 12:36 55.61674 12.88777 7551 ft 296 kts 157°
2026-04-22 12:36 55.59782 12.90099 8283 ft 298 kts 156°
2026-04-22 12:36 55.57848 12.91458 9008 ft 301 kts 156°
2026-04-22 12:37 55.55893 12.92844 9750 ft 305 kts 156°
2026-04-22 12:37 55.53916 12.94254 10453 ft 308 kts 156°
2026-04-22 12:37 55.51881 12.95715 10772 ft 327 kts 156°
2026-04-22 12:37 55.49709 12.97282 10963 ft 347 kts 156°
2026-04-22 12:38 55.47432 12.98924 11390 ft 357 kts 156°
2026-04-22 12:38 55.45119 13.00590 12078 ft 360 kts 156°
2026-04-22 12:38 55.42802 13.02257 12870 ft 361 kts 155°
2026-04-22 12:38 55.40465 13.03938 13592 ft 364 kts 155°
2026-04-22 12:39 55.38111 13.05632 14302 ft 367 kts 155°
2026-04-22 12:39 55.33345 13.09054 15710 ft 372 kts 155°
2026-04-22 12:39 55.30943 13.10776 16406 ft 374 kts 155°
2026-04-22 12:40 55.28523 13.12508 17087 ft 377 kts 155°
2026-04-22 12:40 55.26083 13.14253 17783 ft 380 kts 155°
2026-04-22 12:40 55.23630 13.16005 18467 ft 382 kts 155°
2026-04-22 12:40 55.21158 13.17768 19057 ft 385 kts 155°
2026-04-22 12:41 55.18668 13.19542 19662 ft 387 kts 155°
2026-04-22 12:41 55.16194 13.21257 20253 ft 390 kts 159°
2026-04-22 12:41 55.13538 13.22312 20884 ft 394 kts 172°
2026-04-22 12:41 55.10793 13.22644 21507 ft 396 kts 175°
2026-04-22 12:42 55.08028 13.22890 22055 ft 399 kts 175°
2026-04-22 12:42 55.05247 13.23125 22588 ft 402 kts 175°
2026-04-22 12:42 55.02449 13.23367 23165 ft 403 kts 175°
2026-04-22 12:42 54.99636 13.23623 23726 ft 405 kts 175°
2026-04-22 12:43 54.96814 13.23890 24188 ft 407 kts 175°
2026-04-22 12:43 54.93971 13.24167 24621 ft 410 kts 174°
2026-04-22 12:43 54.91154 13.24446 25039 ft 412 kts 174°
2026-04-22 12:43 54.88287 13.24734 25460 ft 414 kts 174°
2026-04-22 12:44 54.85397 13.25025 25880 ft 417 kts 174°
2026-04-22 12:44 54.82494 13.25318 26286 ft 419 kts 174°
2026-04-22 12:44 54.79577 13.25612 26683 ft 421 kts 174°
2026-04-22 12:44 54.76639 13.25907 27078 ft 423 kts 174°
2026-04-22 12:45 54.73688 13.26203 27465 ft 426 kts 173°
2026-04-22 12:45 54.70720 13.26501 27835 ft 428 kts 173°
2026-04-22 12:45 54.67740 13.26799 28204 ft 430 kts 173°
2026-04-22 12:45 54.64734 13.27099 28575 ft 432 kts 173°
2026-04-22 12:46 54.61726 13.27399 28926 ft 435 kts 173°
2026-04-22 12:46 54.58698 13.27700 29280 ft 437 kts 173°
2026-04-22 12:46 54.55654 13.28003 29623 ft 439 kts 173°
2026-04-22 12:46 54.52600 13.28306 29951 ft 441 kts 173°
2026-04-22 12:47 54.49566 13.28606 30277 ft 443 kts 173°
2026-04-22 12:47 54.46484 13.28911 30553 ft 444 kts 173°
2026-04-22 12:47 54.43394 13.29216 30878 ft 444 kts 173°
2026-04-22 12:47 54.40313 13.29519 31236 ft 444 kts 172°
2026-04-22 12:48 54.37229 13.29822 31573 ft 444 kts 172°
2026-04-22 12:48 54.34147 13.30124 31881 ft 444 kts 172°
2026-04-22 12:48 54.31064 13.30427 32209 ft 444 kts 172°
2026-04-22 12:48 54.27983 13.30728 32527 ft 444 kts 171°
2026-04-22 12:49 54.24901 13.31030 32819 ft 444 kts 171°
2026-04-22 12:49 54.21812 13.31332 33105 ft 445 kts 171°
2026-04-22 12:49 54.18726 13.31634 33423 ft 444 kts 171°
2026-04-22 12:49 54.15638 13.31934 33725 ft 445 kts 171°
2026-04-22 12:50 54.12546 13.32235 33993 ft 445 kts 171°
2026-04-22 12:50 54.09454 13.32536 34265 ft 446 kts 171°
2026-04-22 12:50 54.06356 13.32836 34502 ft 446 kts 171°
2026-04-22 12:50 54.03255 13.33137 34699 ft 447 kts 171°
2026-04-22 12:51 54.00147 13.33438 34908 ft 448 kts 171°
2026-04-22 12:51 53.97036 13.33738 35148 ft 448 kts 171°
2026-04-22 12:51 53.93923 13.34038 35292 ft 450 kts 171°
2026-04-22 12:52 53.87637 13.34645 35288 ft 453 kts 172°
2026-04-22 12:52 53.81368 13.35242 35272 ft 448 kts 172°
2026-04-22 12:53 53.75164 13.35832 35288 ft 446 kts 172°
2026-04-22 12:53 53.68977 13.36423 35282 ft 445 kts 172°
2026-04-22 12:54 53.62838 13.37008 35283 ft 445 kts 172°
2026-04-22 12:54 53.56657 13.37595 35284 ft 445 kts 172°
2026-04-22 12:55 53.50466 13.38181 35282 ft 446 kts 172°
2026-04-22 12:55 53.44264 13.38766 35284 ft 447 kts 172°
2026-04-22 12:56 53.38041 13.39351 35284 ft 449 kts 172°
2026-04-22 12:56 53.31800 13.39936 35286 ft 450 kts 172°
2026-04-22 12:57 53.25534 13.40521 35279 ft 451 kts 172°
2026-04-22 12:57 53.19257 13.41105 35283 ft 452 kts 172°
2026-04-22 12:58 53.12970 13.41689 35277 ft 453 kts 172°
2026-04-22 12:58 53.06677 13.42271 35279 ft 453 kts 172°
2026-04-22 12:59 53.00376 13.42853 35276 ft 453 kts 172°
2026-04-22 12:59 52.94082 13.43432 35280 ft 453 kts 172°
2026-04-22 13:00 52.87791 13.44009 35275 ft 453 kts 172°
2026-04-22 13:00 52.81504 13.44584 35281 ft 452 kts 172°
2026-04-22 13:01 52.75266 13.45153 35278 ft 452 kts 173°
2026-04-22 13:01 52.68989 13.45725 35277 ft 451 kts 172°
2026-04-22 13:02 52.62720 13.46293 35283 ft 451 kts 173°
2026-04-22 13:02 52.56453 13.46860 35289 ft 451 kts 173°
2026-04-22 13:03 52.50187 13.47426 35291 ft 451 kts 173°
2026-04-22 13:03 52.43923 13.47990 35299 ft 451 kts 173°
2026-04-22 13:04 52.37649 13.48553 35296 ft 452 kts 173°
2026-04-22 13:04 52.31369 13.49115 35292 ft 452 kts 173°
2026-04-22 13:05 52.25083 13.49675 35298 ft 452 kts 173°
2026-04-22 13:05 52.18791 13.50235 35294 ft 453 kts 173°
2026-04-22 13:06 52.12493 13.50794 35287 ft 454 kts 173°
2026-04-22 13:06 52.06189 13.51351 35293 ft 454 kts 173°
2026-04-22 13:07 51.99874 13.51908 35291 ft 455 kts 173°
2026-04-22 13:07 51.93550 13.52464 35295 ft 455 kts 173°
2026-04-22 13:08 51.87264 13.53015 35292 ft 456 kts 173°
2026-04-22 13:08 51.80926 13.53570 35291 ft 456 kts 173°
2026-04-22 13:09 51.74594 13.54121 35293 ft 456 kts 173°
2026-04-22 13:09 51.68261 13.54672 35298 ft 456 kts 173°
2026-04-22 13:10 51.61927 13.55221 35300 ft 456 kts 173°
2026-04-22 13:10 51.55593 13.55769 35299 ft 456 kts 173°
2026-04-22 13:11 51.50282 13.56227 35302 ft 456 kts 173°
2026-04-22 13:11 51.43944 13.56773 35305 ft 456 kts 174°
2026-04-22 13:12 51.36568 13.57405 35307 ft 457 kts 174°
2026-04-22 13:12 51.31294 13.57856 35309 ft 457 kts 174°
2026-04-22 13:13 51.24950 13.58398 35321 ft 457 kts 174°
2026-04-22 13:13 51.18593 13.58938 35318 ft 457 kts 174°
2026-04-22 13:14 51.12239 13.59478 35321 ft 457 kts 174°
2026-04-22 13:14 51.05881 13.60015 35321 ft 458 kts 174°
2026-04-22 13:15 50.99518 13.60553 35317 ft 458 kts 174°
2026-04-22 13:15 50.93149 13.61089 35317 ft 458 kts 174°
2026-04-22 13:16 50.86777 13.61624 35316 ft 459 kts 174°
2026-04-22 13:16 50.80397 13.62157 35304 ft 459 kts 174°
2026-04-22 13:17 50.74019 13.62690 35305 ft 459 kts 174°
2026-04-22 13:17 50.67761 13.64242 35311 ft 454 kts 162°
2026-04-22 13:18 50.61666 13.66838 35300 ft 454 kts 161°
2026-04-22 13:18 50.55612 13.69436 35302 ft 454 kts 162°
2026-04-22 13:19 50.49456 13.72013 35291 ft 455 kts 162°
2026-04-22 13:19 50.43371 13.74519 35288 ft 455 kts 162°
2026-04-22 13:20 50.37233 13.77032 35290 ft 456 kts 162°
2026-04-22 13:20 50.31086 13.79543 35289 ft 457 kts 162°
2026-04-22 13:21 50.24929 13.82053 35286 ft 458 kts 162°
2026-04-22 13:21 50.18760 13.84561 35282 ft 458 kts 162°
2026-04-22 13:22 50.12583 13.87066 35275 ft 459 kts 162°
2026-04-22 13:22 50.06402 13.89567 35282 ft 459 kts 162°
2026-04-22 13:23 50.00216 13.92062 35272 ft 460 kts 162°
2026-04-22 13:23 49.94024 13.94553 35269 ft 460 kts 162°
2026-04-22 13:24 49.87831 13.97038 35275 ft 460 kts 163°
2026-04-22 13:24 49.81640 13.99516 35269 ft 460 kts 163°
2026-04-22 13:25 49.75482 14.01974 35269 ft 460 kts 163°
2026-04-22 13:25 49.69286 14.04440 35270 ft 459 kts 163°
2026-04-22 13:26 49.63096 14.06899 35267 ft 459 kts 163°
2026-04-22 13:26 49.56908 14.09349 35267 ft 459 kts 163°
2026-04-22 13:27 49.50712 14.11797 35267 ft 459 kts 163°
2026-04-22 13:27 49.44529 14.14233 35269 ft 459 kts 163°
2026-04-22 13:28 49.38333 14.16667 35263 ft 459 kts 163°
2026-04-22 13:28 49.32142 14.19094 35264 ft 459 kts 163°
2026-04-22 13:29 49.25948 14.21515 35256 ft 459 kts 163°
2026-04-22 13:29 49.19796 14.23914 35264 ft 459 kts 163°
2026-04-22 13:30 49.13591 14.26328 35265 ft 460 kts 163°
2026-04-22 13:30 49.07382 14.28736 35263 ft 460 kts 163°
2026-04-22 13:31 49.01169 14.31141 35266 ft 461 kts 163°
2026-04-22 13:31 48.94943 14.33537 35263 ft 462 kts 165°
2026-04-22 13:32 48.88615 14.35379 35251 ft 464 kts 169°
2026-04-22 13:32 48.82246 14.36947 35258 ft 464 kts 169°
2026-04-22 13:33 48.75881 14.38605 35252 ft 464 kts 168°
2026-04-22 13:33 48.69558 14.40616 35261 ft 463 kts 163°
2026-04-22 13:34 48.63354 14.43193 35252 ft 463 kts 162°
2026-04-22 13:34 48.57197 14.45795 35249 ft 463 kts 163°
2026-04-22 13:35 48.50983 14.48365 35248 ft 463 kts 163°
2026-04-22 13:35 48.44765 14.50900 35242 ft 463 kts 163°
2026-04-22 13:36 48.38547 14.53421 35245 ft 463 kts 163°
2026-04-22 13:36 48.32323 14.55938 35238 ft 463 kts 163°
2026-04-22 13:37 48.26103 14.58450 35241 ft 463 kts 163°
2026-04-22 13:37 48.19876 14.60958 35245 ft 463 kts 163°
2026-04-22 13:38 48.13644 14.63462 35240 ft 464 kts 163°
2026-04-22 13:38 48.04317 14.67198 35238 ft 465 kts 164°
2026-04-22 13:39 47.98069 14.69692 35238 ft 465 kts 164°
2026-04-22 13:39 47.91811 14.72185 35235 ft 466 kts 164°
2026-04-22 13:40 47.85546 14.74675 35232 ft 466 kts 164°
2026-04-22 13:40 47.79277 14.77159 35243 ft 466 kts 164°
2026-04-22 13:41 47.73015 14.79634 35239 ft 466 kts 164°
2026-04-22 13:41 47.66740 14.82109 35228 ft 466 kts 164°
2026-04-22 13:42 47.60463 14.84578 35219 ft 467 kts 164°
2026-04-22 13:42 47.54183 14.87044 35217 ft 467 kts 164°
2026-04-22 13:43 47.47918 14.89340 35198 ft 467 kts 169°
2026-04-22 13:43 47.41488 14.90808 35195 ft 467 kts 172°
2026-04-22 13:44 47.35047 14.92103 35196 ft 467 kts 172°
2026-04-22 13:44 47.28604 14.93451 35188 ft 467 kts 171°
2026-04-22 13:45 47.22214 14.94835 35188 ft 467 kts 171°
2026-04-22 13:45 47.15775 14.96245 35191 ft 468 kts 171°
2026-04-22 13:46 47.09335 14.97653 35196 ft 468 kts 171°
2026-04-22 13:46 47.02891 14.99056 35187 ft 468 kts 172°
2026-04-22 13:47 46.96440 15.00456 35189 ft 468 kts 172°
2026-04-22 13:47 46.89990 15.01851 35189 ft 468 kts 172°
2026-04-22 13:48 46.83584 15.03235 35190 ft 468 kts 172°
2026-04-22 13:48 46.77133 15.04624 35193 ft 468 kts 172°
2026-04-22 13:49 46.70690 15.06008 35193 ft 468 kts 172°
2026-04-22 13:49 46.64251 15.07388 35195 ft 467 kts 172°
2026-04-22 13:50 46.57814 15.08765 35188 ft 467 kts 172°
2026-04-22 13:50 46.51379 15.10138 35194 ft 467 kts 172°
2026-04-22 13:51 46.44930 15.11510 35189 ft 468 kts 172°
2026-04-22 13:51 46.38489 15.12877 35185 ft 468 kts 173°
2026-04-22 13:52 46.32046 15.14242 35191 ft 468 kts 173°
2026-04-22 13:52 46.25606 15.15603 35188 ft 468 kts 173°
2026-04-22 13:53 46.19165 15.16961 35192 ft 468 kts 173°
2026-04-22 13:53 46.12767 15.18306 35190 ft 468 kts 173°
2026-04-22 13:54 46.06328 15.19657 35201 ft 468 kts 173°
2026-04-22 13:54 45.99879 15.21007 35198 ft 468 kts 173°
2026-04-22 13:55 45.93426 15.22354 35203 ft 469 kts 173°
2026-04-22 13:55 45.86967 15.23700 35203 ft 469 kts 173°
2026-04-22 13:56 45.80501 15.25043 35208 ft 470 kts 174°
2026-04-22 13:56 45.74029 15.26386 35200 ft 470 kts 174°
2026-04-22 13:57 45.67548 15.27727 35195 ft 471 kts 174°
2026-04-22 13:57 45.61061 15.29066 35189 ft 471 kts 174°
2026-04-22 13:58 45.54603 15.30742 35197 ft 473 kts 167°
2026-04-22 13:58 45.48284 15.33249 35185 ft 474 kts 166°
2026-04-22 13:59 45.41929 15.35867 35188 ft 474 kts 166°
2026-04-22 13:59 45.35578 15.38412 35189 ft 474 kts 167°
2026-04-22 14:00 45.30293 15.40487 35183 ft 474 kts 167°
2026-04-22 14:00 45.23926 15.42967 35191 ft 474 kts 167°
2026-04-22 14:01 45.17551 15.45446 35186 ft 474 kts 167°
2026-04-22 14:01 45.11181 15.47918 35177 ft 474 kts 167°
2026-04-22 14:02 45.04817 15.50385 35173 ft 474 kts 167°
2026-04-22 14:02 44.98447 15.52848 35173 ft 474 kts 168°
2026-04-22 14:03 44.92085 15.55302 35179 ft 474 kts 168°
2026-04-22 14:03 44.85765 15.57735 35170 ft 474 kts 168°
2026-04-22 14:04 44.79396 15.60180 35159 ft 474 kts 168°
2026-04-22 14:04 44.73032 15.62618 35159 ft 474 kts 168°
2026-04-22 14:05 44.66658 15.65054 35148 ft 474 kts 168°
2026-04-22 14:06 44.57098 15.68698 35139 ft 475 kts 168°
2026-04-22 14:06 44.50720 15.71122 35140 ft 476 kts 168°
2026-04-22 14:07 44.44325 15.73547 35133 ft 476 kts 168°
2026-04-22 14:07 44.37925 15.75969 35120 ft 476 kts 169°
2026-04-22 14:08 44.31563 15.78370 35111 ft 477 kts 169°
2026-04-22 14:08 44.25159 15.80783 35096 ft 477 kts 169°
2026-04-22 14:09 44.18761 15.83189 35089 ft 476 kts 169°
2026-04-22 14:09 44.12321 15.85059 35081 ft 468 kts 181°
2026-04-22 14:10 44.05883 15.84807 35079 ft 462 kts 189°
2026-04-22 14:10 43.99471 15.84230 35076 ft 462 kts 189°
2026-04-22 14:11 43.93057 15.83697 35063 ft 462 kts 189°
2026-04-22 14:11 43.86635 15.83210 35060 ft 462 kts 189°
2026-04-22 14:12 43.80208 15.82738 35060 ft 462 kts 189°
2026-04-22 14:12 43.73785 15.82269 35056 ft 462 kts 189°
2026-04-22 14:13 43.67364 15.81799 35052 ft 462 kts 189°
2026-04-22 14:13 43.60952 15.81329 35052 ft 461 kts 189°
2026-04-22 14:14 43.54579 15.80864 35049 ft 461 kts 189°
2026-04-22 14:14 43.48171 15.80396 35050 ft 461 kts 189°
2026-04-22 14:15 43.41770 15.79930 35052 ft 461 kts 190°
2026-04-22 14:15 43.35368 15.79465 35050 ft 460 kts 190°
2026-04-22 14:16 43.28972 15.79002 35057 ft 460 kts 190°
2026-04-22 14:16 43.22583 15.78541 35051 ft 456 kts 190°
2026-04-22 14:17 43.16299 15.78093 35045 ft 449 kts 191°
2026-04-22 14:17 43.10051 15.77640 34840 ft 451 kts 191°
2026-04-22 14:17 43.06931 15.77414 34528 ft 446 kts 191°
2026-04-22 14:18 43.03844 15.77195 34158 ft 442 kts 192°
2026-04-22 14:18 43.00776 15.76977 33740 ft 439 kts 192°
2026-04-22 14:18 42.97738 15.76761 33317 ft 436 kts 193°
2026-04-22 14:18 42.94719 15.76545 32912 ft 432 kts 193°
2026-04-22 14:19 42.91720 15.76330 32525 ft 429 kts 194°
2026-04-22 14:19 42.88787 15.76120 32148 ft 426 kts 194°
2026-04-22 14:19 42.85838 15.75909 31772 ft 423 kts 195°
2026-04-22 14:19 42.82912 15.75699 31401 ft 420 kts 195°
2026-04-22 14:20 42.76965 15.76011 30334 ft 447 kts 180°
2026-04-22 14:20 42.73919 15.77122 29787 ft 461 kts 169°
2026-04-22 14:20 42.70939 15.78783 29367 ft 462 kts 166°
2026-04-22 14:21 42.65109 15.82251 28610 ft 454 kts 166°
2026-04-22 14:21 42.62225 15.83967 28175 ft 451 kts 166°
2026-04-22 14:22 42.56500 15.87320 27345 ft 445 kts 167°
2026-04-22 14:22 42.53663 15.88962 26959 ft 442 kts 167°
2026-04-22 14:22 42.48047 15.92192 26231 ft 435 kts 167°
2026-04-22 14:23 42.45268 15.93786 25867 ft 432 kts 167°
2026-04-22 14:23 42.42505 15.95368 25501 ft 430 kts 167°
2026-04-22 14:23 42.39793 15.96919 25144 ft 427 kts 167°
2026-04-22 14:23 42.37029 15.98500 24787 ft 424 kts 167°
2026-04-22 14:24 42.34354 16.00028 24444 ft 422 kts 167°
2026-04-22 14:24 42.31659 16.01567 24093 ft 419 kts 167°
2026-04-22 14:24 42.28979 16.03096 23770 ft 417 kts 167°
2026-04-22 14:24 42.26320 16.04612 23409 ft 414 kts 167°
2026-04-22 14:25 42.23681 16.06116 23065 ft 409 kts 167°
2026-04-22 14:25 42.21074 16.07600 22722 ft 405 kts 167°
2026-04-22 14:25 42.18487 16.09072 22407 ft 401 kts 166°
2026-04-22 14:25 42.15927 16.10526 22073 ft 397 kts 166°
2026-04-22 14:26 42.13389 16.11966 21724 ft 394 kts 166°
2026-04-22 14:26 42.10876 16.13390 21391 ft 390 kts 166°
2026-04-22 14:26 42.08385 16.14801 21073 ft 386 kts 166°
2026-04-22 14:26 42.05920 16.16196 20756 ft 383 kts 166°
2026-04-22 14:27 42.03477 16.17577 20445 ft 379 kts 165°
2026-04-22 14:27 42.01055 16.18945 20124 ft 376 kts 165°
2026-04-22 14:27 41.98653 16.20301 19817 ft 373 kts 165°
2026-04-22 14:27 41.96272 16.21644 19509 ft 369 kts 165°
2026-04-22 14:28 41.93909 16.22976 19210 ft 366 kts 165°
2026-04-22 14:28 41.91604 16.24274 18925 ft 363 kts 165°
2026-04-22 14:28 41.89285 16.25578 18624 ft 360 kts 164°
2026-04-22 14:28 41.86984 16.26872 18326 ft 357 kts 164°
2026-04-22 14:29 41.84705 16.28153 17978 ft 354 kts 164°
2026-04-22 14:29 41.82439 16.29424 17598 ft 353 kts 164°
2026-04-22 14:29 41.80179 16.30691 17228 ft 351 kts 164°
2026-04-22 14:29 41.77931 16.31951 16870 ft 349 kts 164°
2026-04-22 14:30 41.75698 16.33202 16518 ft 347 kts 164°
2026-04-22 14:30 41.73472 16.34448 16171 ft 345 kts 164°
2026-04-22 14:30 41.71255 16.35688 15830 ft 343 kts 163°
2026-04-22 14:30 41.69057 16.36917 15499 ft 342 kts 163°
2026-04-22 14:31 41.66872 16.38137 15185 ft 340 kts 163°
2026-04-22 14:31 41.64697 16.39351 14876 ft 338 kts 163°
2026-04-22 14:31 41.62604 16.40802 14587 ft 343 kts 147°
2026-04-22 14:31 41.60996 16.43120 14345 ft 347 kts 125°
2026-04-22 14:32 41.59726 16.45856 14126 ft 347 kts 123°
2026-04-22 14:32 41.58482 16.48625 13888 ft 348 kts 122°
2026-04-22 14:32 41.57241 16.51395 13627 ft 348 kts 122°
2026-04-22 14:32 41.55997 16.54155 13354 ft 345 kts 122°
2026-04-22 14:33 41.54791 16.56809 13092 ft 343 kts 123°
2026-04-22 14:33 41.53551 16.59522 12833 ft 341 kts 122°
2026-04-22 14:33 41.52314 16.62216 12571 ft 338 kts 122°
2026-04-22 14:33 41.51089 16.64879 12305 ft 335 kts 122°
2026-04-22 14:34 41.49877 16.67506 12046 ft 330 kts 122°
2026-04-22 14:34 41.48679 16.70099 11786 ft 326 kts 122°
2026-04-22 14:34 41.47497 16.72656 11526 ft 322 kts 122°
2026-04-22 14:34 41.46326 16.75187 11277 ft 319 kts 122°
2026-04-22 14:35 41.45174 16.77674 11138 ft 311 kts 122°
2026-04-22 14:35 41.44047 16.80103 10924 ft 307 kts 122°
2026-04-22 14:35 41.42928 16.82515 10634 ft 305 kts 121°
2026-04-22 14:35 41.41813 16.84917 10377 ft 303 kts 121°
2026-04-22 14:36 41.40707 16.87295 10113 ft 301 kts 121°
2026-04-22 14:36 41.39620 16.89634 9871 ft 301 kts 121°
2026-04-22 14:36 41.38520 16.91998 9620 ft 299 kts 121°
2026-04-22 14:36 41.37429 16.94343 9360 ft 297 kts 121°
2026-04-22 14:37 41.36344 16.96671 9095 ft 295 kts 121°
2026-04-22 14:37 41.35261 16.98992 8782 ft 294 kts 121°
2026-04-22 14:37 41.34194 17.01274 8456 ft 287 kts 120°
2026-04-22 14:37 41.32921 17.03269 8109 ft 283 kts 144°
2026-04-22 14:38 41.31185 17.04369 7817 ft 272 kts 167°
2026-04-22 14:38 41.29363 17.04904 7403 ft 265 kts 170°
2026-04-22 14:38 41.27576 17.05387 6979 ft 259 kts 169°
2026-04-22 14:38 41.25813 17.05872 6271 ft 262 kts 168°
2026-04-22 14:39 41.24000 17.06008 5472 ft 264 kts 195°
2026-04-22 14:39 41.22446 17.04843 4722 ft 257 kts 231°
2026-04-22 14:39 41.21536 17.02853 4116 ft 247 kts 249°
2026-04-22 14:40 41.20511 16.99532 3572 ft 223 kts 253°
2026-04-22 14:40 41.19802 16.97045 3206 ft 206 kts 254°
2026-04-22 14:40 41.19315 16.95331 2938 ft 192 kts 254°
2026-04-22 14:40 41.18858 16.93724 2688 ft 180 kts 254°
2026-04-22 14:41 41.18430 16.92219 2474 ft 169 kts 255°
2026-04-22 14:41 41.18029 16.90807 2259 ft 158 kts 255°
2026-04-22 14:41 41.17656 16.89493 2108 ft 145 kts 255°
2026-04-22 14:41 41.17305 16.88252 1888 ft 142 kts 255°
2026-04-22 14:42 41.16962 16.87051 1682 ft 136 kts 256°
2026-04-22 14:42 41.16632 16.85882 1524 ft 136 kts 255°
2026-04-22 14:42 41.16294 16.84682 1314 ft 138 kts 255°
2026-04-22 14:42 41.15955 16.83490 1144 ft 139 kts 256°
2026-04-22 14:43 41.15617 16.82292 962 ft 143 kts 253°
2026-04-22 14:43 41.15268 16.81064 749 ft 139 kts 252°
2026-04-22 14:43 41.14936 16.79884 587 ft 135 kts 251°
2026-04-22 14:43 41.14610 16.78748 351 ft 133 kts 249°
2026-04-22 14:44 41.14288 16.77609 205 ft 133 kts 250°
2026-04-22 14:44 41.13969 16.76472 122 ft 112 kts 251°
2026-04-22 14:44 41.13820 16.75949 136 ft 31 kts 249°
2026-04-22 14:44 41.13756 16.75764 138 ft 16 kts 223°
2026-04-22 14:45 41.13670 16.75681 139 ft 15 kts 214°
2026-04-22 14:45 41.13582 16.75652 139 ft 12 kts 138°
2026-04-22 14:45 41.13576 16.75750 137 ft 9 kts 66°
2026-04-22 14:45 41.13600 16.75829 137 ft 9 kts 71°
2026-04-22 14:46 41.13626 16.75924 135 ft 13 kts 69°
2026-04-22 14:46 41.13616 16.76048 135 ft 15 kts 139°
2026-04-22 14:46 41.13557 16.76122 135 ft 10 kts 116°
2026-04-22 14:46 41.13565 16.76211 135 ft 9 kts 70°
2026-04-22 14:47 41.13561 16.76271 135 ft 2 kts 150°
2026-04-22 14:47 41.13536 16.76281 135 ft 5 kts 163°
2026-04-22 14:47 41.13513 16.76292 135 ft 2 kts 159°
2026-04-22 14:47 41.13512 16.76293 135 ft 0 kts 159°